Volver al catálogo

FENGYUN 1C DEB

ActivoSSO
NORAD 30013·DEBRIS·🇨🇳 China

Lanzado May 10, 1999 desde Taiyuan Satellite Launch Center

Loading…

Próximos Pases (próximas 24 horas)

TLE

ActualizadoSource: Space-Track

Época: Sep 14, 2026, 08:54 UTC

1 30013U 99025MN  26257.37150344  .00000134  00000-0  14251-3 0  9995
2 30013  99.5582 288.6174 0127955  31.0176 342.0804 13.87980031995059

Sigue FENGYUN 1C DEB en tiempo real con AllMySat

Download on the App Store